Time,TemperatureF,DewpointF,PressureIn,WindDirection,WindDirectionDegrees,WindSpeedMPH,WindSpeedGustMPH,Humidity,HourlyPrecipIn,Conditions,Clouds,dailyrainin,SoftwareType,DateUTC
2013-06-22 10:02:00,63.0,62.0,-100.00,East,85,7.0,15.0,96,-99.99,,,-99.99,,2013-06-22 15:02:00,
2013-06-22 10:34:00,62.0,61.0,-100.00,SSE,160,9.0,14.0,96,-99.99,,,-99.99,,2013-06-22 15:34:00,
2013-06-22 10:43:00,62.0,61.0,-100.00,SSE,160,9.0,14.0,96,-99.99,,,-99.99,,2013-06-22 15:43:00,
2013-06-22 10:53:00,62.0,61.0,-100.00,SSE,160,9.0,14.0,96,-99.99,,,-99.99,,2013-06-22 15:53:00,
2013-06-22 11:02:00,62.0,61.0,-100.00,SSE,160,9.0,14.0,96,-99.99,,,-99.99,,2013-06-22 16:02:00,
2013-06-22 11:34:00,65.0,63.0,-100.00,WSW,255,2.0,4.0,95,-99.99,,,-99.99,,2013-06-22 16:34:00,
2013-06-22 11:43:00,65.0,63.0,-100.00,WSW,255,2.0,4.0,95,-99.99,,,-99.99,,2013-06-22 16:43:00,
2013-06-22 11:52:00,65.0,63.0,-100.00,WSW,255,2.0,4.0,95,-99.99,,,-99.99,,2013-06-22 16:52:00,
2013-06-22 12:02:00,65.0,63.0,-100.00,WSW,255,2.0,4.0,95,-99.99,,,-99.99,,2013-06-22 17:02:00,
2013-06-22 12:34:00,67.0,62.0,-100.00,WNW,300,2.0,4.0,84,-99.99,,,-99.99,,2013-06-22 17:34:00,
2013-06-22 12:43:00,67.0,62.0,-100.00,WNW,300,2.0,4.0,84,-99.99,,,-99.99,,2013-06-22 17:43:00,
2013-06-22 12:52:00,67.0,62.0,-100.00,WNW,300,2.0,4.0,84,-99.99,,,-99.99,,2013-06-22 17:52:00,
2013-06-22 13:02:00,67.0,62.0,-100.00,WNW,300,2.0,4.0,84,-99.99,,,-99.99,,2013-06-22 18:02:00,
2013-06-22 13:34:00,70.0,63.0,-100.00,ENE,75,2.0,7.0,79,-99.99,,,-99.99,,2013-06-22 18:34:00,
2013-06-22 13:43:00,70.0,63.0,-100.00,ENE,75,2.0,7.0,79,-99.99,,,-99.99,,2013-06-22 18:43:00,
2013-06-22 13:52:00,70.0,63.0,-100.00,ENE,75,2.0,7.0,79,-99.99,,,-99.99,,2013-06-22 18:52:00,
2013-06-22 14:01:00,70.0,63.0,-100.00,ENE,75,2.0,7.0,79,-99.99,,,-99.99,,2013-06-22 19:01:00,
2013-06-22 14:33:00,70.0,64.0,-100.00,ENE,60,4.0,7.0,80,-99.99,,,-99.99,,2013-06-22 19:33:00,
2013-06-22 14:43:00,70.0,64.0,-100.00,ENE,60,4.0,7.0,80,-99.99,,,-99.99,,2013-06-22 19:43:00,
2013-06-22 14:53:00,70.0,64.0,-100.00,ENE,60,4.0,7.0,80,-99.99,,,-99.99,,2013-06-22 19:53:00,
2013-06-22 15:02:00,70.0,64.0,-100.00,ENE,60,4.0,7.0,80,-99.99,,,-99.99,,2013-06-22 20:02:00,
2013-06-22 15:34:00,73.0,64.0,-100.00,SE,145,6.0,9.0,74,-99.99,,,-99.99,,2013-06-22 20:34:00,
2013-06-22 15:43:00,73.0,64.0,-100.00,SE,145,6.0,9.0,74,-99.99,,,-99.99,,2013-06-22 20:43:00,
2013-06-22 15:53:00,73.0,64.0,-100.00,SE,145,6.0,9.0,74,-99.99,,,-99.99,,2013-06-22 20:53:00,
2013-06-22 16:01:00,73.0,64.0,-100.00,SE,145,6.0,9.0,74,-99.99,,,-99.99,,2013-06-22 21:01:00,
2013-06-22 16:34:00,72.0,64.0,-100.00,ESE,115,4.0,10.0,76,-99.99,,,-99.99,,2013-06-22 21:34:00,
2013-06-22 16:43:00,72.0,64.0,-100.00,ESE,115,4.0,10.0,76,-99.99,,,-99.99,,2013-06-22 21:43:00,
2013-06-22 16:53:00,72.0,64.0,-100.00,ESE,115,4.0,10.0,76,-99.99,,,-99.99,,2013-06-22 21:53:00,
2013-06-22 17:02:00,72.0,64.0,-100.00,ESE,115,4.0,10.0,76,-99.99,,,-99.99,,2013-06-22 22:02:00,
2013-06-22 17:33:00,71.0,65.0,-100.00,North,10,0.0,2.0,83,-99.99,,,-99.99,,2013-06-22 22:33:00,
2013-06-22 17:43:00,71.0,65.0,-100.00,North,10,0.0,2.0,83,-99.99,,,-99.99,,2013-06-22 22:43:00,
2013-06-22 17:52:00,71.0,65.0,-100.00,North,10,0.0,2.0,83,-99.99,,,-99.99,,2013-06-22 22:52:00,
2013-06-22 18:01:00,71.0,65.0,-100.00,North,10,0.0,2.0,83,-99.99,,,-99.99,,2013-06-22 23:01:00,
2013-06-22 18:34:00,71.0,67.0,-100.00,SE,140,2.0,7.0,90,-99.99,,,-99.99,,2013-06-22 23:34:00,
2013-06-22 18:43:00,71.0,67.0,-100.00,SE,140,2.0,7.0,90,-99.99,,,-99.99,,2013-06-22 23:43:00,
2013-06-22 18:52:00,71.0,67.0,-100.00,SE,140,2.0,7.0,90,-99.99,,,-99.99,,2013-06-22 23:52:00,
2013-06-22 19:01:00,71.0,67.0,-100.00,SE,140,2.0,7.0,90,-99.99,,,-99.99,,2013-06-23 00:01:00,
2013-06-22 19:34:00,71.0,66.0,-100.00,SE,145,6.0,12.0,85,-99.99,,,-99.99,,2013-06-23 00:34:00,
2013-06-22 19:42:00,71.0,66.0,-100.00,SE,145,6.0,12.0,85,-99.99,,,-99.99,,2013-06-23 00:42:00,
2013-06-22 19:53:00,71.0,66.0,-100.00,SE,145,6.0,12.0,85,-99.99,,,-99.99,,2013-06-23 00:53:00,
2013-06-22 20:01:00,71.0,66.0,-100.00,SE,145,6.0,12.0,85,-99.99,,,-99.99,,2013-06-23 01:01:00,
2013-06-22 20:32:00,70.0,66.0,-100.00,SSE,165,2.0,9.0,88,-99.99,,,-99.99,,2013-06-23 01:32:00,
2013-06-22 20:42:00,70.0,66.0,-100.00,SSE,165,2.0,9.0,88,-99.99,,,-99.99,,2013-06-23 01:42:00,
2013-06-22 20:52:00,70.0,66.0,-100.00,SSE,165,2.0,9.0,88,-99.99,,,-99.99,,2013-06-23 01:52:00,
2013-06-22 21:01:00,70.0,66.0,-100.00,SSE,165,2.0,9.0,88,-99.99,,,-99.99,,2013-06-23 02:01:00,
2013-06-22 21:31:00,67.0,65.0,-100.00,SSE,155,10.0,15.0,93,-99.99,,,-99.99,,2013-06-23 02:31:00,
2013-06-22 21:41:00,67.0,65.0,-100.00,SSE,155,10.0,15.0,93,-99.99,,,-99.99,,2013-06-23 02:41:00,
2013-06-22 21:52:00,67.0,65.0,-100.00,SSE,155,10.0,15.0,93,-99.99,,,-99.99,,2013-06-23 02:52:00,
2013-06-22 22:01:00,67.0,65.0,-100.00,SSE,155,10.0,15.0,93,-99.99,,,-99.99,,2013-06-23 03:01:00,
2013-06-22 22:31:00,65.0,64.0,-100.00,SE,145,7.0,11.0,97,-99.99,,,-99.99,,2013-06-23 03:31:00,
2013-06-22 22:41:00,65.0,64.0,-100.00,SE,145,7.0,11.0,97,-99.99,,,-99.99,,2013-06-23 03:41:00,
2013-06-22 22:52:00,65.0,64.0,-100.00,SE,145,7.0,11.0,97,-99.99,,,-99.99,,2013-06-23 03:52:00,
2013-06-22 23:01:00,65.0,64.0,-100.00,SE,145,7.0,11.0,97,-99.99,,,-99.99,,2013-06-23 04:01:00,
2013-06-22 23:31:00,64.0,63.0,-100.00,SSE,165,6.0,10.0,97,-99.99,,,-99.99,,2013-06-23 04:31:00,
2013-06-22 23:42:00,64.0,63.0,-100.00,SSE,165,6.0,10.0,97,-99.99,,,-99.99,,2013-06-23 04:42:00,
2013-06-22 23:52:00,64.0,63.0,-100.00,SSE,165,6.0,10.0,97,-99.99,,,-99.99,,2013-06-23 04:52:00,